CW7668 Weather Reports


Display with metric or nautical units.
time (UTC)temp
F
wind
direction
speed
MPH
gust
MPH
rain 1hr
in
rain 24hr
in
rain mn
in
humidity
%
barometer
mb
20260506181548 82 126 0.0 2.0 0.00 0.00 0.00 91 1009.8
20260506181046 82 110 0.0 2.0 0.00 0.00 0.00 91 1009.9
20260506180545 81 108 0.0 2.0 0.00 0.00 0.00 91 1009.9
20260506180314 81 134 0.0 2.0 0.00 0.00 0.00 91 1010.0
20260506175544 81 136 0.0 2.0 0.00 0.00 0.00 92 1010.3
20260506175043 81 137 0.0 2.0 0.00 0.00 0.00 91 1010.4
20260506174542 81 140 0.0 1.0 0.00 0.00 0.00 92 1010.4
20260506174042 81 140 0.0 1.0 0.00 0.00 0.00 92 1010.5
20260506173540 81 141 0.0 2.0 0.00 0.00 0.00 92 1010.5
20260506173040 81 141 0.0 2.0 0.00 0.00 0.00 93 1010.6
20260506172538 81 140 0.0 1.0 0.00 0.00 0.00 93 1010.8
20260506172039 80 141 0.0 2.0 0.00 0.00 0.00 94 1010.8
20260506171537 80 144 1.0 4.0 0.00 0.00 0.00 94 1010.7
20260506171039 80 140 1.0 4.0 0.00 0.00 0.00 94 1010.8
20260506171035 80 143 1.0 4.0 0.00 0.00 0.00 93 1010.8
20260506170029 80 144 1.0 4.0 0.00 0.00 0.00 94 1010.8
20260506165522 80 113 0.0 4.0 0.00 0.00 0.00 95 1010.8
20260506165017 80 153 0.0 3.0 0.00 0.00 0.00 95 1010.8
20260506164511 79 153 1.0 4.0 0.00 0.00 0.00 94 1010.9
20260506164241 79 155 1.0 5.0 0.00 0.00 0.00 93 1010.9
20260506035720 77 130 2.0 8.0 0.00 0.00 0.00 93 1009.0
20260506035214 77 132 2.0 8.0 0.00 0.00 0.00 93 1009.0
20260506034708 78 148 1.0 7.0 0.00 0.00 0.00 93 1009.0
20260506034202 78 88 1.0 5.0 0.00 0.00 0.00 93 1009.0
20260506033656 78 146 1.0 5.0 0.00 0.00 0.00 93 1009.1
20260506033150 78 132 2.0 10.0 0.00 0.00 0.00 93 1008.8
20260506032644 78 152 2.0 10.0 0.00 0.00 0.00 93 1008.6
20260506032138 78 130 2.0 7.0 0.00 0.00 0.00 93 1008.5
20260506031631 78 148 2.0 9.0 0.00 0.00 0.00 93 1008.4
20260506031126 78 148 2.0 9.0 0.00 0.00 0.00 93 1008.4
20260506030619 78 145 3.0 10.0 0.00 0.00 0.00 93 1008.4
20260506030114 78 146 3.0 10.0 0.00 0.00 0.00 92 1008.2
20260506025607 78 148 2.0 8.0 0.00 0.00 0.00 92 1008.3
20260506025102 78 115 2.0 8.0 0.00 0.00 0.00 92 1008.2
20260506024555 78 167 2.0 10.0 0.00 0.00 0.00 92 1008.2
20260506024322 78 177 2.0 10.0 0.00 0.00 0.00 92 1008.2
20260506023544 78 191 3.0 10.0 0.00 0.00 0.00 91 1008.0
20260506023037 78 148 3.0 10.0 0.00 0.00 0.00 91 1008.1
20260506022531 78 138 3.0 11.0 0.00 0.00 0.00 91 1007.9
20260506022025 78 140 2.0 11.0 0.00 0.00 0.00 91 1007.9
20260506021524 78 115 2.0 10.0 0.00 0.00 0.00 91 1007.8
20260506021024 78 140 2.0 10.0 0.00 0.00 0.00 91 1007.8
20260506020524 78 146 2.0 7.0 0.00 0.00 0.00 90 1007.7
20260506020254 79 94 1.0 7.0 0.00 0.00 0.00 90 1007.7
20260506015521 79 148 2.0 7.0 0.00 0.00 0.00 90 1007.7
20260506015020 79 154 2.0 7.0 0.00 0.00 0.00 90 1007.7
20260506014520 79 161 2.0 8.0 0.00 0.00 0.00 90 1007.5
20260506014019 79 142 2.0 8.0 0.00 0.00 0.00 89 1007.4
20260506013520 79 173 2.0 7.0 0.00 0.00 0.00 89 1007.4
20260506013018 79 142 1.0 7.0 0.00 0.00 0.00 89 1007.4
20260506012519 79 165 2.0 8.0 0.00 0.00 0.00 89 1007.5
20260506012018 79 147 2.0 8.0 0.00 0.00 0.00 89 1007.6
20260506011516 79 159 3.0 12.0 0.00 0.00 0.00 88 1007.1
20260506011013 79 130 3.0 12.0 0.00 0.00 0.00 88 1007.0
20260506010745 79 156 2.0 9.0 0.00 0.00 0.00 88 1007.0
20260506010014 79 186 3.0 9.0 0.00 0.00 0.00 88 1007.0
20260506005745 79 144 3.0 11.0 0.00 0.00 0.00 88 1006.9
20260506005008 80 159 4.0 11.0 0.00 0.00 0.00 87 1006.9
20260506004502 80 150 2.0 9.0 0.00 0.00 0.00 87 1006.9
20260506003956 80 141 1.0 8.0 0.00 0.00 0.00 87 1006.9
20260506003453 80 148 2.0 8.0 0.00 0.00 0.00 87 1006.9
20260506002953 80 136 1.0 8.0 0.00 0.00 0.00 87 1006.8
20260506002452 80 126 2.0 9.0 0.00 0.00 0.00 87 1006.7
20260506002226 80 155 3.0 11.0 0.00 0.00 0.00 87 1006.7
20260506001453 80 140 3.0 11.0 0.00 0.00 0.00 86 1006.7
20260506000953 80 179 3.0 11.0 0.00 0.00 0.00 86 1006.8
20260506000453 80 161 3.0 12.0 0.00 0.00 0.00 86 1006.8
20260505235954 80 134 3.0 12.0 0.00 0.00 0.00 86 1006.9
20260505235726 80 153 3.0 12.0 0.00 0.00 0.00 87 1006.8
20260505234954 80 138 2.0 10.0 0.00 0.00 0.00 86 1006.7
20260505234455 81 199 3.0 12.0 0.00 0.00 0.00 86 1006.8
20260505233950 81 133 3.0 12.0 0.00 0.00 0.00 86 1006.7
20260505233450 81 134 3.0 13.0 0.00 0.00 0.00 86 1006.7
20260505232950 81 148 3.0 13.0 0.00 0.00 0.00 85 1006.7
20260505232449 81 160 3.0 11.0 0.00 0.00 0.00 85 1006.7
20260505231948 81 171 3.0 10.0 0.00 0.00 0.00 84 1006.8
20260505231449 82 191 2.0 9.0 0.00 0.00 0.00 85 1006.7
20260505230948 82 154 2.0 9.0 0.00 0.00 0.00 85 1006.6
20260505230449 82 179 3.0 11.0 0.00 0.00 0.00 86 1006.6
20260505225950 82 178 3.0 11.0 0.00 0.00 0.00 85 1006.7
20260505225445 82 155 2.0 9.0 0.00 0.00 0.00 85 1006.8
20260505224945 83 132 2.0 9.0 0.00 0.00 0.00 84 1006.7
20260505224718 83 150 2.0 10.0 0.00 0.00 0.00 84 1006.7
20260505223944 83 161 3.0 12.0 0.00 0.00 0.00 84 1006.7
20260505223445 83 136 3.0 12.0 0.00 0.00 0.00 82 1006.8
20260505222946 83 194 2.0 8.0 0.00 0.00 0.00 82 1006.7
20260505222444 83 148 2.0 8.0 0.00 0.00 0.00 82 1006.7
20260505221945 83 213 3.0 11.0 0.00 0.00 0.00 82 1006.9
20260505221446 83 159 3.0 13.0 0.00 0.00 0.00 82 1006.9
20260505220942 83 132 4.0 13.0 0.00 0.00 0.00 83 1006.9
20260505220442 83 219 3.0 15.0 0.00 0.00 0.00 83 1006.8
20260505215942 83 130 2.0 15.0 0.00 0.00 0.00 82 1006.9
20260505215440 83 215 2.0 7.0 0.00 0.00 0.00 83 1006.9
20260505214940 83 163 3.0 12.0 0.00 0.00 0.00 83 1007.1
20260505214440 83 150 3.0 12.0 0.00 0.00 0.00 83 1007.1
20260505213940 83 159 3.0 10.0 0.00 0.00 0.00 83 1007.2
20260505213713 83 163 3.0 10.0 0.00 0.00 0.00 82 1007.1
20260505212942 83 148 3.0 14.0 0.00 0.00 0.00 82 1007.2
20260505212713 83 194 3.0 14.0 0.00 0.00 0.00 83 1007.2
20260505211940 83 140 2.0 12.0 0.00 0.00 0.00 82 1007.3
20260505211440 83 197 2.0 12.0 0.00 0.00 0.00 83 1007.3
20260505210940 83 171 2.0 10.0 0.00 0.00 0.00 83 1007.4
20260505210712 83 197 3.0 10.0 0.00 0.00 0.00 83 1007.5
20260505210210 83 159 3.0 12.0 0.00 0.00 0.00 83 1007.5
20260505205438 83 168 3.0 12.0 0.00 0.00 0.00 83 1007.6
20260505204938 83 162 2.0 12.0 0.00 0.00 0.00 83 1007.6
20260505204437 83 180 2.0 8.0 0.00 0.00 0.00 83 1007.7
20260505203937 83 202 2.0 8.0 0.00 0.00 0.00 82 1007.9
20260505203436 83 201 2.0 12.0 0.00 0.00 0.00 82 1007.9
20260505202936 84 178 2.0 12.0 0.00 0.00 0.00 81 1007.8
20260505202438 84 175 2.0 10.0 0.00 0.00 0.00 82 1007.9
20260505202210 84 190 2.0 9.0 0.00 0.00 0.00 82 1008.1
20260505201430 84 211 2.0 9.0 0.00 0.00 0.00 83 1008.0
20260505200923 84 190 2.0 9.0 0.00 0.00 0.00 83 1008.1
20260505200417 84 195 3.0 12.0 0.00 0.00 0.00 83 1008.2
20260505195911 84 179 3.0 12.0 0.00 0.00 0.00 82 1008.3
20260505195636 84 184 2.0 10.0 0.00 0.00 0.00 83 1008.3
20260505194859 83 213 3.0 11.0 0.00 0.00 0.00 84 1008.4
20260505194357 83 187 3.0 11.0 0.00 0.00 0.00 85 1008.6
20260505194352 83 103 3.0 11.0 0.00 0.00 0.00 84 1008.6
20260505193350 82 168 2.0 8.0 0.00 0.00 0.00 85 1008.5
20260505192849 82 159 2.0 9.0 0.00 0.00 0.00 86 1008.6
20260505192349 82 209 2.0 11.0 0.00 0.00 0.00 85 1008.7
20260505191849 82 139 2.0 11.0 0.00 0.00 0.00 84 1008.6
20260505191348 83 155 2.0 10.0 0.00 0.00 0.00 84 1008.7
20260505190847 82 152 2.0 10.0 0.00 0.00 0.00 84 1008.8
20260505190346 82 155 2.0 7.0 0.00 0.00 0.00 84 1008.8
20260505185846 82 189 3.0 10.0 0.00 0.00 0.00 83 1008.7
20260505185344 82 203 3.0 10.0 0.00 0.00 0.00 84 1008.7
20260505184844 82 217 2.0 10.0 0.00 0.00 0.00 84 1008.7
20260505184344 82 204 2.0 13.0 0.00 0.00 0.00 85 1008.9
20260505183844 82 215 3.0 13.0 0.00 0.00 0.00 85 1008.9
20260505183345 82 170 3.0 8.0 0.00 0.00 0.00 85 1009.0
20260505182846 81 171 3.0 8.0 0.00 0.00 0.00 86 1009.0
20260505182344 81 201 2.0 7.0 0.00 0.00 0.00 86 1008.9